Wind_Speed
30 30 31 31 31 31 31 31 30 30 30 29 29 29 30 30 31 32 32 31 31 31 30 28 26 24 23 21 20 19 18 17 16 16 16 16 16 16 16 15 14 13 12
33 33 33 33 33 33 33 32 32 31 31 30 30 30 30 30 30 32 32 32 32 32 31 30 27 26 25 23 22 21 19 18 17 16 17 17 17 18 18 17 17 16 15
35 34 34 34 33 34 33 33 32 33 32 31 30 31 30 30 30 30 31 32 32 32 31 29 27 26 26 25 24 23 21 19 18 18 18 18 18 18 19 19 19 18 17
37 36 35 35 35 35 34 34 34 33 32 31 31 31 31 30 30 30 30 31 32 32 31 30 29 28 28 27 26 24 22 21 20 19 18 18 18 18 18 20 20 20 19
39 38 36 37 36 36 35 35 34 33 32 31 30 31 31 31 30 29 29 31 32 33 31 31 31 29 29 29 27 26 24 23 21 20 19 19 19 19 19 19 20 20 20
40 39 38 37 37 36 35 35 34 34 33 31 30 30 30 30 30 30 29 31 32 32 32 31 31 30 30 30 29 27 26 25 23 22 21 21 20 20 20 20 20 21 21
41 41 40 39 38 36 35 35 35 35 34 32 31 31 31 30 30 29 29 30 30 31 31 31 31 31 30 30 29 28 28 26 25 23 22 21 20 20 19 19 20 21 21
42 42 41 40 39 38 37 36 36 35 34 33 33 32 32 30 30 29 29 30 30 31 32 31 31 32 31 30 30 29 29 27 26 24 22 21 20 20 19 19 19 20 21
42 42 41 40 40 39 38 38 37 36 36 35 34 33 32 31 30 30 29 30 30 31 32 32 32 33 32 31 31 30 29 27 26 25 23 22 21 19 19 18 18 18 19
42 41 40 40 40 39 39 38 38 37 37 36 36 34 33 33 31 30 30 30 31 32 32 32 33 32 32 32 31 30 30 28 27 25 24 23 22 20 19 18 17 18 18
41 41 40 38 38 38 38 37 37 37 36 37 36 36 34 33 32 32 31 30 30 31 32 32 32 32 33 32 32 32 31 29 28 27 25 24 23 21 20 18 17 17 17
39 39 39 37 37 37 37 37 37 37 37 37 37 36 36 34 33 32 32 32 31 32 32 33 32 32 33 33 33 33 32 31 29 28 27 25 24 22 20 18 17 16 16
37 38 38 37 37 36 36 36 36 37 37 38 38 37 37 37 35 35 34 33 32 32 32 34 33 33 33 34 35 34 33 33 31 30 28 26 24 22 20 18 17 17 16
38 38 38 38 38 37 37 37 37 37 37 38 39 39 38 39 38 37 36 36 35 33 33 34 35 36 35 36 36 36 35 34 33 32 30 28 26 23 21 19 18 17 16
40 40 40 40 40 40 39 39 39 39 38 39 40 41 41 41 41 40 38 39 37 35 35 35 36 37 38 38 38 38 38 36 35 34 32 30 27 25 23 21 19 17 16
41 42 42 43 43 43 43 43 42 42 41 41 41 41 43 43 43 43 43 42 41 39 37 37 37 39 39 40 40 40 39 39 38 36 35 32 30 27 25 23 20 18 17
42 43 43 45 46 46 47 46 46 46 45 45 44 44 44 45 45 45 45 45 45 43 41 39 38 40 40 42 42 42 41 40 40 39 37 35 33 30 27 25 22 20 18
43 43 44 45 46 47 48 48 48 48 48 48 48 47 46 47 47 47 48 48 48 48 45 42 41 41 41 42 44 43 43 42 42 42 40 38 36 33 30 27 25 22 20
43 44 44 45 46 46 47 48 49 49 49 49 50 49 49 49 49 49 50 50 51 51 50 47 45 45 44 44 45 44 43 43 44 43 42 40 38 36 33 30 27 24 22
43 43 44 45 46 47 48 48 49 49 49 50 50 51 51 51 51 52 52 53 53 53 54 52 49 48 47 47 47 46 45 44 44 44 43 42 41 39 36 33 30 27 24
43 44 44 45 45 46 46 47 47 47 48 49 50 51 51 52 52 53 53 54 55 54 55 56 55 52 50 49 49 48 46 45 45 44 44 44 43 41 38 35 33 30 27
41 42 42 42 42 43 43 43 44 44 45 47 48 50 51 52 52 53 54 55 56 56 56 57 57 55 52 51 49 50 48 46 44 44 44 43 44 43 41 38 35 32 29
41 41 41 41 41 40 39 39 40 40 41 43 45 47 49 51 52 52 54 55 57 58 57 56 57 57 55 54 50 50 49 49 47 45 44 43 44 43 42 40 37 34 32
40 40 39 39 38 37 36 35 35 35 35 37 39 42 45 48 51 52 53 55 56 58 58 57 56 56 56 56 53 49 48 49 49 48 45 43 44 43 43 41 39 37 34
39 38 37 37 35 34 32 31 30 29 30 32 34 37 41 44 45 49 51 53 54 56 57 57 57 56 56 56 54 52 50 48 47 48 46 44 44 43 43 42 41 39 36
37 36 36 35 33 31 29 27 26 25 26 28 30 33 37 40 42 44 47 50 52 54 55 56 56 55 55 56 54 52 50 49 48 47 46 45 44 43 42 41 40 39 37
Wind_Direction
291 289 289 288 287 285 285 286 287 285 284 281 277 272 267 263 260 254 251 247 244 245 246 247 242 239 241 240 241 240 238 237 239 237 236 236 234 234 234 235 235 236 236
293 289 286 285 285 284 283 281 281 281 280 279 278 277 271 267 265 257 252 248 246 244 244 242 239 238 236 238 238 237 236 236 237 238 237 236 236 235 236 236 236 236 237
293 292 290 288 287 286 284 280 279 279 278 276 275 274 272 269 264 259 253 248 244 242 241 240 240 236 235 236 235 234 233 234 237 238 236 235 235 237 237 236 236 236 236
292 291 291 290 289 287 285 282 280 278 278 274 271 269 269 270 264 258 252 248 245 242 238 237 235 235 234 232 230 230 231 231 234 234 233 234 234 236 236 235 236 237 236
291 290 288 288 289 286 283 281 280 277 277 274 270 267 267 268 264 257 253 248 244 240 236 235 233 233 230 228 226 226 228 228 231 232 232 234 235 236 235 234 234 235 235
290 288 287 287 286 284 280 278 277 276 276 272 269 267 266 265 263 257 251 248 244 237 235 234 232 230 228 225 223 224 226 227 229 231 231 234 235 235 235 234 234 234 234
288 288 287 286 284 282 280 278 277 276 274 271 267 266 264 263 261 257 250 246 241 236 233 232 230 228 226 223 223 224 225 226 227 228 229 230 230 230 231 232 232 232 232
287 286 285 284 282 280 278 276 275 273 271 269 266 264 261 260 259 255 249 245 240 237 234 232 231 228 225 223 222 222 222 222 222 222 223 224 224 224 226 228 229 231 232
286 284 282 280 279 277 276 274 273 271 269 266 264 262 259 258 256 253 250 244 238 236 234 233 230 226 224 220 219 219 218 217 217 218 219 219 219 220 222 224 227 230 232
286 284 281 279 278 276 274 272 271 268 266 264 262 260 259 256 253 249 246 243 239 234 232 230 227 225 221 218 218 218 216 215 214 214 215 215 215 217 219 222 226 229 233
286 284 283 280 277 275 274 271 269 266 264 262 260 257 256 253 251 247 244 242 237 232 229 226 223 222 220 218 216 216 215 214 213 213 213 213 214 216 219 223 225 228 230
287 285 283 280 277 275 272 271 268 265 263 261 258 256 253 251 249 246 243 239 234 230 227 225 223 222 219 217 216 215 214 212 212 211 211 213 214 216 218 220 223 226 228
288 286 284 282 279 276 274 271 269 266 263 260 257 254 250 247 245 243 241 235 232 229 226 224 221 220 218 217 214 213 212 212 212 210 210 212 214 215 217 218 221 225 229
290 287 285 283 281 278 275 272 270 267 263 260 256 252 249 245 241 240 236 232 230 229 226 223 220 218 218 216 214 213 212 212 212 211 211 212 214 215 216 219 222 226 231
290 288 285 283 281 278 276 273 270 267 264 260 256 252 248 244 241 237 233 230 229 229 228 223 220 218 216 216 215 213 213 212 212 212 212 212 214 216 217 220 223 226 230
290 288 286 283 281 279 277 274 271 268 265 261 257 253 249 245 241 236 232 229 227 226 226 223 221 218 216 216 216 214 213 213 213 213 213 214 216 217 219 221 224 228 232
291 289 287 284 282 280 277 274 271 267 264 260 257 253 250 245 242 236 231 229 226 224 223 221 221 220 217 216 216 215 214 215 215 215 215 216 217 219 220 223 226 230 234
293 291 289 286 283 280 277 274 271 267 263 259 256 252 249 246 242 238 232 229 227 225 222 220 220 220 218 216 215 216 216 215 216 216 216 217 218 220 221 224 227 231 234
297 295 293 289 285 282 279 275 272 268 262 257 254 251 247 244 241 237 233 229 227 225 223 220 220 219 218 218 216 216 216 217 217 217 217 218 219 221 222 224 227 230 233
301 299 296 292 288 285 281 277 273 267 261 256 252 249 246 242 239 236 233 229 226 224 223 221 220 220 219 218 216 216 217 217 217 217 218 219 220 221 223 225 228 230 233
304 302 299 295 292 288 283 278 273 267 261 255 251 247 244 241 237 235 232 228 226 224 224 222 221 221 219 218 217 216 217 218 217 217 219 220 221 222 224 226 228 230 233
308 306 304 300 296 291 285 280 273 266 260 255 249 245 242 239 236 233 230 227 225 224 223 222 222 221 220 219 217 217 217 217 217 218 220 221 222 224 225 227 228 231 233
311 309 306 303 299 294 288 282 275 268 261 254 248 243 239 235 232 230 228 226 225 224 222 222 222 221 220 220 220 219 218 219 219 219 220 221 222 224 226 227 229 231 233
315 312 309 306 302 297 291 285 277 269 260 252 245 240 235 231 230 226 225 224 224 224 223 222 222 222 220 221 221 221 219 217 218 219 220 221 221 224 226 228 229 231 233
318 316 313 310 306 301 294 286 278 269 258 249 242 237 231 229 227 225 223 222 222 222 223 223 223 222 221 221 221 221 220 219 218 219 220 220 220 223 225 228 229 230 232
323 321 317 313 309 304 297 289 281 270 258 248 241 235 230 226 224 221 219 219 220 220 220 221 222 222 221 221 221 221 221 221 220 220 218 219 220 221 223 226 228 229 231
Height
5866 5865 5864 5863 5862 5861 5859 5858 5857 5857 5855 5854 5854 5854 5854 5854 5855 5856 5858 5861 5863 5866 5868 5871 5873 5875 5878 5880 5882 5884 5885 5887 5888 5890 5892 5893 5895 5897 5899 5901 5902 5904 5906
5859 5858 5856 5855 5854 5852 5851 5851 5850 5849 5848 5847 5847 5846 5846 5846 5847 5848 5850 5853 5855 5858 5861 5863 5866 5869 5872 5875 5877 5879 5881 5883 5884 5886 5888 5889 5891 5893 5895 5897 5899 5901 5903
5851 5849 5847 5846 5845 5844 5843 5842 5841 5841 5840 5840 5839 5839 5839 5839 5839 5840 5842 5844 5847 5850 5854 5857 5860 5863 5866 5869 5872 5874 5877 5879 5880 5882 5884 5885 5887 5889 5891 5893 5895 5897 5900
5843 5841 5839 5838 5836 5835 5834 5833 5832 5832 5831 5831 5831 5831 5831 5832 5832 5833 5834 5837 5839 5843 5846 5850 5853 5857 5859 5862 5866 5869 5872 5874 5876 5878 5880 5881 5883 5885 5887 5889 5891 5894 5896
5834 5832 5830 5829 5828 5827 5825 5824 5823 5823 5823 5822 5822 5823 5823 5824 5824 5825 5827 5829 5832 5835 5838 5842 5846 5850 5853 5856 5860 5863 5866 5869 5871 5873 5875 5877 5879 5881 5883 5885 5887 5889 5892
5825 5823 5821 5820 5819 5817 5816 5815 5815 5814 5814 5814 5814 5815 5815 5816 5816 5818 5820 5822 5825 5828 5831 5835 5839 5843 5846 5850 5854 5857 5861 5864 5866 5868 5871 5873 5875 5877 5878 5881 5883 5885 5887
5815 5814 5812 5810 5809 5808 5807 5806 5805 5805 5805 5805 5806 5807 5807 5808 5809 5810 5812 5814 5818 5821 5824 5828 5832 5836 5839 5843 5847 5851 5855 5858 5861 5863 5866 5868 5870 5872 5874 5876 5878 5880 5883
5806 5804 5802 5800 5799 5798 5797 5797 5796 5796 5796 5796 5797 5798 5799 5801 5801 5803 5805 5807 5810 5814 5817 5821 5825 5829 5832 5836 5841 5845 5849 5852 5855 5858 5861 5864 5866 5868 5870 5872 5874 5876 5878
5795 5793 5791 5790 5788 5788 5787 5786 5786 5786 5787 5787 5788 5789 5790 5792 5793 5796 5797 5800 5803 5806 5810 5814 5818 5822 5826 5830 5834 5839 5843 5846 5850 5853 5856 5859 5861 5864 5866 5868 5870 5872 5874
5783 5781 5780 5778 5777 5776 5776 5775 5775 5776 5776 5777 5778 5780 5781 5783 5785 5788 5790 5792 5795 5799 5802 5806 5811 5815 5819 5823 5828 5832 5837 5841 5844 5848 5851 5855 5857 5860 5862 5864 5866 5868 5870
5771 5769 5767 5767 5766 5765 5764 5764 5764 5765 5766 5767 5768 5770 5772 5773 5776 5779 5783 5785 5788 5791 5795 5799 5803 5808 5812 5816 5821 5826 5831 5835 5839 5843 5847 5850 5853 5856 5858 5860 5862 5864 5866
5760 5757 5755 5754 5754 5753 5753 5752 5753 5753 5754 5756 5757 5759 5762 5764 5767 5770 5773 5777 5780 5783 5787 5791 5796 5800 5804 5809 5814 5819 5824 5829 5834 5838 5842 5845 5849 5852 5854 5856 5858 5860 5862
5749 5746 5744 5743 5742 5741 5741 5741 5741 5742 5743 5744 5746 5748 5751 5754 5757 5761 5764 5768 5771 5775 5779 5784 5788 5793 5797 5802 5807 5813 5818 5823 5828 5833 5837 5841 5845 5847 5850 5852 5855 5857 5859
5738 5736 5733 5731 5730 5729 5729 5729 5729 5730 5731 5732 5734 5737 5740 5743 5747 5751 5755 5759 5762 5767 5771 5776 5781 5786 5790 5795 5800 5806 5811 5817 5822 5827 5831 5836 5840 5843 5846 5848 5851 5853 5855
5727 5724 5721 5719 5718 5717 5716 5716 5716 5717 5718 5720 5722 5724 5728 5731 5735 5740 5744 5749 5753 5758 5763 5767 5773 5778 5782 5788 5793 5799 5805 5810 5816 5821 5826 5830 5835 5838 5842 5844 5847 5849 5851
5715 5711 5709 5706 5704 5702 5702 5702 5702 5703 5704 5706 5708 5711 5714 5718 5722 5727 5732 5737 5742 5748 5753 5758 5764 5769 5775 5780 5785 5791 5797 5803 5809 5814 5820 5825 5829 5833 5837 5840 5843 5845 5847
5702 5698 5695 5692 5689 5687 5686 5686 5686 5687 5689 5691 5693 5696 5700 5704 5708 5714 5720 5726 5731 5737 5743 5749 5754 5760 5765 5771 5777 5783 5789 5796 5801 5807 5813 5818 5823 5828 5832 5835 5838 5840 5843
5689 5685 5681 5677 5674 5671 5669 5668 5669 5670 5672 5674 5677 5681 5685 5689 5694 5700 5706 5712 5719 5725 5732 5738 5744 5750 5756 5762 5768 5774 5781 5787 5794 5800 5806 5811 5817 5821 5826 5830 5833 5836 5838
5676 5671 5666 5662 5658 5655 5653 5651 5650 5651 5653 5656 5659 5663 5668 5673 5679 5685 5692 5698 5705 5712 5719 5726 5733 5739 5746 5752 5758 5765 5772 5778 5785 5792 5798 5804 5810 5815 5819 5824 5827 5830 5833
5663 5657 5651 5646 5642 5638 5636 5633 5632 5632 5634 5637 5641 5645 5650 5656 5663 5669 5676 5684 5691 5699 5706 5714 5721 5728 5735 5741 5748 5755 5762 5769 5777 5783 5790 5796 5802 5808 5812 5817 5821 5824 5827
5649 5643 5637 5631 5626 5622 5618 5615 5613 5613 5615 5618 5622 5627 5633 5639 5646 5653 5661 5669 5676 5684 5692 5701 5708 5716 5724 5731 5739 5746 5753 5760 5767 5775 5781 5788 5794 5800 5805 5810 5814 5818 5821
5637 5629 5623 5616 5610 5605 5601 5597 5595 5595 5597 5599 5603 5608 5614 5621 5629 5636 5645 5653 5661 5670 5678 5687 5695 5703 5712 5720 5728 5735 5743 5751 5759 5767 5773 5779 5786 5792 5798 5802 5807 5811 5815
5625 5617 5610 5603 5596 5590 5585 5582 5579 5578 5579 5581 5585 5590 5596 5604 5612 5620 5629 5637 5646 5655 5664 5673 5683 5691 5700 5709 5718 5726 5733 5741 5749 5756 5763 5770 5777 5783 5789 5795 5799 5804 5808
5614 5606 5598 5590 5583 5577 5572 5568 5565 5564 5564 5566 5569 5574 5580 5587 5596 5604 5613 5623 5632 5641 5651 5661 5671 5679 5687 5696 5706 5714 5722 5730 5739 5747 5754 5762 5768 5775 5781 5786 5792 5796 5801
5603 5595 5587 5579 5572 5565 5560 5556 5553 5552 5552 5554 5557 5561 5567 5574 5582 5590 5600 5610 5619 5628 5636 5647 5657 5666 5675 5684 5694 5703 5712 5721 5729 5737 5745 5753 5760 5766 5772 5778 5783 5788 5793
5594 5585 5577 5569 5562 5555 5550 5546 5543 5542 5542 5543 5546 5551 5556 5563 5570 5578 5587 5597 5607 5616 5625 5635 5644 5654 5664 5673 5683 5693 5702 5711 5720 5728 5736 5744 5751 5757 5764 5769 5775 5780 5785